User: anonymous   Login
Location: Prairie State College
(41.5244°N, 87.6382°W)
Time: 23:52:54
(UTC-06:00)
Language:

Cosmos 1943 - Orbit

View from above orbital plane
View from above orbital plane
View from above satellite
View from above satellite

Ground track
Ground track

The orbit data is extracted from the following two-line orbital elements,

1 19119U 88039A   18022.38674902 -.00000277  00000-0 -11794-3 0  9994
2 19119  71.0020   1.4539 0009015  83.3839  68.4525 14.15105228533105
Epoch (UTC): 22 January 2018 09:16:55
Eccentricity: 0.0009015
inclination: 71.0020°
perigee height: 835 km
apogee height: 848 km
right ascension of ascending node: 1.4539°
argument of perigee: 83.3839°
revolutions per day: 14.15105228
mean anomaly at epoch: 68.4525°
orbit number at epoch: 53310

The dashed part of the orbit path shows where the satellite is in the earth's shadow,  

DLR